This is the latest recevied weather packets stored in our database for station/object SV9TNF-52. If no packets are shown the sender has not sent any weather packets the latest 10 day(s).
| Time | Temp. | Humidity | Pressure | Rain* | Wind** | Luminosity | Snow |
|---|---|---|---|---|---|---|---|
| 1788431351 | 33.33° C | 45% | 1017.6 hPa | 0 mm | 2.68 m/s, 6° | - | - |
| 1788431051 | 32.22° C | 49% | 1018 hPa | 0 mm | 5.36 m/s, 241° | - | - |
| 1788430751 | 32.22° C | 48% | 1018 hPa | 0 mm | 4.02 m/s, 263° | - | - |
| 1788430451 | 32.22° C | 48% | 1018 hPa | 0 mm | 4.92 m/s, 9° | - | - |
| 1788430150 | 32.22° C | 48% | 1018 hPa | 0 mm | 2.68 m/s, 341° | - | - |
| 1788429851 | 32.78° C | 47% | 1018 hPa | 0 mm | 4.02 m/s, 264° | - | - |
| 1788429551 | 32.78° C | 46% | 1018 hPa | 0 mm | 4.92 m/s, 229° | - | - |
| 1788429250 | 33.33° C | 46% | 1018 hPa | 0 mm | 4.92 m/s, 332° | - | - |
| 1788428950 | 33.33° C | 46% | 1018 hPa | 0 mm | 4.92 m/s, 246° | - | - |
| 1788428650 | 33.33° C | 47% | 1018 hPa | 0 mm | 3.13 m/s, 141° | - | - |
| 1788428350 | 32.78° C | 47% | 1018 hPa | 0 mm | 6.71 m/s, 237° | - | - |
| 1788428050 | 32.78° C | 47% | 1018.3 hPa | 0 mm | 4.92 m/s, 150° | - | - |
| 1788427750 | 32.78° C | 51% | 1018.3 hPa | 0 mm | 4.92 m/s, 250° | - | - |
| 1788427450 | 32.22° C | 52% | 1018.3 hPa | 0 mm | 2.24 m/s, 39° | - | - |
| 1788427150 | 32.22° C | 53% | 1018.3 hPa | 0 mm | 5.81 m/s, 238° | - | - |
| 1788426850 | 31.67° C | 53% | 1018.3 hPa | 0 mm | 8.05 m/s, 75° | - | - |
| 1788426550 | 32.22° C | 54% | 1018.3 hPa | 0 mm | 4.47 m/s, 191° | - | - |
| 1788426249 | 32.22° C | 55% | 1018.3 hPa | 0 mm | 2.68 m/s, 343° | - | - |
| 1788425949 | 32.22° C | 56% | 1018.3 hPa | 0 mm | 4.92 m/s, 200° | - | - |
| 1788425649 | 31.67° C | 54% | 1018.3 hPa | 0 mm | 6.26 m/s, 296° | - | - |
| 1788425349 | 31.67° C | 56% | 1018.3 hPa | 0 mm | 7.15 m/s, 288° | - | - |
| 1788425049 | 31.67° C | 55% | 1018.3 hPa | 0 mm | 4.92 m/s, 241° | - | - |
| 1788424749 | 32.78° C | 53% | 1018.3 hPa | 0 mm | 3.13 m/s, 189° | - | - |
| 1788424449 | 32.78° C | 52% | 1018.3 hPa | 0 mm | 4.02 m/s, 309° | - | - |
| 1788424149 | 32.22° C | 52% | 1018.3 hPa | 0 mm | 4.92 m/s, 283° | - | - |
* Rain latest hour (hover to see other rain measurements)
** Current wind speed in m/s (hover to see current wind gust speed)